Location: Broekland
(52.3610°N, 6.2005°E)
Time: 01:58:09
(UTC+00:00)

ISS - Pass Details

Date: 19 May 2025
Orbit: 415 x 417 km, 51.6° (Epoch: 23 June)

Event Time Altitude Azimuth Distance (km) Brightness Sun altitude
Rises 20:08:55 0° 274° (W) 2,363 1.0 -5.3°
Reaches altitude 10° 20:11:01 10° 273° (W) 1,498 -0.1 -5.6°
Maximum altitude 20:14:22 74° 189° (S) 437 -3.8 -6.0°
Drops below altitude 10° 20:17:43 10° 103° (ESE) 1,492 -1.5 -6.3°
Enters shadow 20:18:41 - 102° (ESE) 1,892 -1.0 -6.4°
